User: anonymous
Location: Rehoboth Beach
(38.7438°N, 75.1341°W)
Time: 10:52:18
(UTC-04:00)
Language:

Cosmos 1452 Rocket - Orbit

View from above orbital plane
View from above orbital plane
View from above satellite
View from above satellite

Ground track
Ground track

The orbit data is extracted from the following two-line orbital elements,

1 13992U 83031B   14237.19980319  .00000047  00000-0  25228-4 0  4883
2 13992 074.0522 090.4172 0005719 319.6588 179.8143 14.35762743641399
Epoch (UTC): 25 August 2014 04:47:42
Eccentricity: 0.0005719
inclination: 74.0522°
perigee height: 768 km
apogee height: 776 km
right ascension of ascending node: 90.4172°
argument of perigee: 319.6588°
revolutions per day: 14.35762743
mean anomaly at epoch: 179.8143°
orbit number at epoch: 64139

The dashed part of the orbit path shows where the satellite is in the earth's shadow,  

DLR